Location: Buchberg
(46.9333°N, 15.8500°E)
Time: 19:59:49
(UTC+00:00)

Cosmos 1666 - Pass Details

Date: 14 July 2020
Orbit: 497 x 521 km, 82.5° (Epoch: 05 August)

Event Time Altitude Azimuth Distance (km) Brightness Sun altitude
Exits shadow 01:13:06 26° 180° (S) 1,030 3.7 -15.4°
Maximum altitude 01:15:07 77° 98° (E) 526 2.7 -15.2°
Drops below altitude 10° 01:18:54 10° 12° (NNE) 1,723 6.5 -14.9°
Sets 01:21:01 0° 11° (N) 2,609 7.6 -14.7°
